sat.trackr.live / text

‹ back to catalog

STARLINK-37403

NORAD 68788 · 2026-086Y

PAYLOAD ACTIVE UNKNOWN

§ Identity

Operator
Country
US
Launch date
2026-04-19
Launch site
AFWTR
Launch vehicle
Mass (kg)
RCS (m²)

Purposes: comms

External: N2YO · Heavens-Above · Gunter

§ Orbital elements

Epoch: 2026-05-25T05:11:57.892128Z

Period
91.51 min
Inclination
97.2856°
Eccentricity
0.0002094
Mean motion
15.73526436 rev/d
Perigee alt
347.4 km
Apogee alt
350.2 km
Semi-major
6,727.0 km
B*
1.3597e-3
RAAN
182.1126°
Arg perigee
62.3416°
Mean anomaly
297.8061°
Rev number
554

§ Raw data

STARLINK-374031 68788U 26086Y   26145.21664227  .00193056  00000+0  13597-2 0  99972 68788  97.2856 182.1126 0002094  62.3416 297.8061 15.73526436  5543

JSON: /api/v1/satellites/68788 · /tle

For live sub-satellite position, see the globe view (requires WebGL).

§ Visibility from observer

Set your observer location to see the next 7 days of passes ≥ 10°. The values pass through the URL so the page stays shareable.

No JS? Fill the form by hand. The geolocation button needs JavaScript.